Simultaneous Nadir Overpasses (SNOs) Predictions

Prediction of SNOs between NOAA-19 and TERRA Satellite Orbit:

Table of predicted SNOs for the next 14.0 days since TLE Epoch: 1/13/2015
Index Date (NOAA-19) Time (NOAA-19) Lat,Lon (NOAA-19) SZA (NOAA-19 ) Date (TERRA) Time (TERRA) Lat,Lon (TERRA) SZA (TERRA ) Distance(km) Time Diff (sec)
1 01/14/2015 21:33:34 72.05,-141.86 93.19 01/14/2015 21:34:42 71.96,-140.00 93.10 64.59 68
2 01/14/2015 22:24:20 -71.38, 26.67 87.49 01/14/2015 22:24:20 -71.41, 26.70 87.47 3.03 0
3 01/14/2015 23:15:07 70.52,-164.59 91.65 01/14/2015 23:14:00 70.61,-166.91 91.72 86.36 67
4 01/17/2015 03:07:54 -71.43, -44.28 87.85 01/17/2015 03:08:38 -71.42, -44.36 87.87 3.43 44
5 01/17/2015 03:58:56 71.32, 123.17 92.03 01/17/2015 03:58:05 71.32, 123.13 92.03 1.63 51
6 01/19/2015 07:51:38 -72.01,-116.22 87.72 01/19/2015 07:52:47 -71.89,-114.64 87.84 56.00 69
7 01/19/2015 08:42:31 71.40, 52.15 91.67 01/19/2015 08:42:21 71.42, 52.21 91.68 2.40 10
8 01/19/2015 09:33:11 -70.47,-138.96 89.27 01/19/2015 09:32:05 -70.55,-141.52 89.20 95.18 66
9 01/21/2015 13:26:05 71.45, -18.79 91.24 01/21/2015 13:26:38 71.44, -18.83 91.23 1.88 33
10 01/21/2015 14:17:00 -71.31, 148.72 88.91 01/21/2015 14:16:08 -71.33, 148.63 88.89 3.75 52
11 01/23/2015 18:09:41 71.61, -89.94 90.90 01/23/2015 18:10:53 71.55, -89.71 90.84 10.49 72
12 01/23/2015 19:00:34 -71.40, 77.72 89.33 01/23/2015 19:00:24 -71.39, 77.66 89.33 2.22 10
13 01/25/2015 23:44:08 -71.49, 6.69 89.77 01/25/2015 23:44:39 -71.49, 6.74 89.77 1.71 31
14 01/26/2015 00:35:12 71.38, 174.13 90.11 01/26/2015 00:34:06 71.38, 174.21 90.12 2.93 66




NCC Satellite Simultaneous Nadir Overpasses (SNOs) Prediction Service
